Weather Roundup
Issued by NWS Chicago, IL

Home | Current Version | Previous Version | Graphics & Text | Print | Product List | Glossary On
Versions: 1 2 3 4 5 6 7 8 9 10 11 12 13 14 15 16 17 18 19 20 21 22 23 24 25 26 27 28 29 30 31 32 33 34 35 36 37 38 39 40 41 42 43 44 45 46 47 48 49 50
000
NZUS59 KLOT 312208
HRRLOT

CHICAGO AREA WEATHER ROUNDUP
NATIONAL WEATHER SERVICE CHICAGO/ROMEOVILLE IL
500 PM CDT TUE MAY 31 2016

NOTE: "FAIR" INDICATES FEW OR NO CLOUDS BELOW 12,000 FEET WITH NO
SIGNIFICANT WEATHER AND/OR OBSTRUCTIONS TO VISIBILITY.

* THESE STATIONS ARE NOT UNDER NWS QUALITY CONTROL. THEY ALSO MAY NOT
  REPORT WEATHER SUCH AS PRECIPITATION OR FOG.

ILZ005-006-012>014-019>023-312300-
NORTHEAST ILLINOIS

CITY           SKY/WX    TMP DP  RH WIND       PRES   REMARKS
OHARE          RAIN      65  63  93 N8        30.02R FOG
MIDWAY         TSTM      67  62  84 NW8       30.03R
AURORA         LGT RAIN  67  65  93 E13       30.01R FOG
LANSING*       CLOUDY    69  61  77 NW8       30.01R
JOLIET*        CLOUDY    69  66  91 CALM      29.98F
WAUKEGAN       RAIN      66  61  84 SW6       30.03R
DUPAGE AIRPORT LGT RAIN  66  63  90 NE10      30.00S
WHEELING       RAIN      65  63  93 N5        30.04R FOG
KANKAKEE*      CLOUDY    69  61  75 N6        29.98R
MORRIS*        CLOUDY    69  65  86 NE5       29.96F
LEWIS AIRPORT* LGT RAIN  66  63  88 NE7       29.99F
$$

WIZ051-052-058>065-066-070>072-312300-
SOUTHEAST WISCONSIN

CITY           SKY/WX    TMP DP  RH WIND       PRES   REMARKS
MILWAUKEE      LGT RAIN  69  60  73 W8        30.02R
KENOSHA*       CLOUDY    68  59  73 W10       30.03F
RACINE*        MOSUNNY   72  60  66 W8        30.03R
BURLINGTON     LGT RAIN  63  60  91 CALM      30.01F
WAUKESHA       RAIN      63  61  94 SW3       30.04R
WEST BEND      LGT RAIN  63  59  88 S3        30.01S
$$

INZ001>003-010>013-019-020-312300-
NORTHWEST INDIANA

CITY           SKY/WX    TMP DP  RH WIND       PRES   REMARKS
GARY*          CLOUDY    68  68 100 NW12      30.01R
MICHIGAN CITY* NOT AVBL
RENSSELAER*    NOT AVBL
$$

LMZ740>746-312300-
SOUTHERN LAKE MICHIGAN

STATION/POSITION TIME  SKY/WX   TEMP WIND        PRES    VSBY
                                AIR  DIR/SP/G
                 (UTC)          (F)  (DEG/KT/KT) (MB)    (MI)
HARRISON CRIB    2100            65                N/A
BURNHAM HARBOR   2200            66  330/ 11/ 15   N/A
CALUMET HARBOR   2100            66  300/ 13/ 17 1014.7R
BURNS HARBOR     2100            75  120/ 14/ 21 1014.9R
MICHIGAN CITY    2100            72  180/ 18/ 21   N/A
$$

ABBREVIATIONS USED IN REMARKS
   TC - TEMPERATURE IN CELSIUS
  WCI - WIND CHILL INDEX
   HX - HEAT INDEX
  VSB - VISIBILITY
$$




USA.gov is the U.S. government's official web portal to all federal, state and local government web resources and services.